sat.trackr.live / text

‹ back to catalog

STARLINK-3712

NORAD 52090 · 2022-029C

PAYLOAD ACTIVE UNKNOWN

§ Identity

Operator
Country
US
Launch date
2022-03-19
Launch site
AFETR
Launch vehicle
Mass (kg)
RCS (m²)

Purposes: comms

External: N2YO · Heavens-Above · Gunter

§ Orbital elements

Epoch: 2026-09-19T16:30:18.804096Z

Period
93.90 min
Inclination
53.1592°
Eccentricity
0.0001330
Mean motion
15.33549606 rev/d
Perigee alt
464.3 km
Apogee alt
466.1 km
Semi-major
6,843.4 km
B*
1.5505e-5
RAAN
285.5498°
Arg perigee
85.0593°
Mean anomaly
275.0561°
Rev number
25,011

§ Raw data

STARLINK-37121 52090U 22029C   26262.68771764  .00000137  00000+0  15505-4 0  99952 52090  53.1592 285.5498 0001330  85.0593 275.0561 15.33549606250118

JSON: /api/v1/satellites/52090 · /tle

For live sub-satellite position, see the globe view (requires WebGL).

§ Visibility from observer

Set your observer location to see the next 7 days of passes ≥ 10°. The values pass through the URL so the page stays shareable.

No JS? Fill the form by hand. The geolocation button needs JavaScript.